W0NKY-13 Weather Reports


time (UTC)temp
C
wind
direction
speed
KPH
gust
KPH
rain 1hr
cm
rain 24hr
cm
rain mn
cm
humidity
%
barometer
mb
20260507230522 14 88 0.0 3.2 0.00 0.00 0.00 42 1016.1
20260507225522 14 147 1.6 4.8 0.00 0.00 0.00 44 1016.1
20260507224520 15 50 1.6 6.4 0.00 0.00 0.00 43 1016.0
20260507223520 15 147 0.0 3.2 0.00 0.00 0.00 40 1016.0
20260507222520 15 142 1.6 3.2 0.00 0.00 0.00 42 1016.0
20260507221520 16 146 1.6 4.8 0.00 0.00 0.00 41 1016.1
20260507220520 16 40 1.6 6.4 0.00 0.00 0.00 41 1016.1
20260507215521 17 28 1.6 4.8 0.00 0.00 0.00 42 1016.2
20260507214518 16 63 1.6 6.4 0.00 0.00 0.00 43 1016.2
20260507213518 17 10 1.6 4.8 0.00 0.00 0.00 42 1016.3
20260507212517 17 102 1.6 3.2 0.00 0.00 0.00 40 1016.1
20260507211517 17 65 1.6 6.4 0.00 0.00 0.00 42 1016.2
20260507210516 17 165 3.2 6.4 0.00 0.00 0.00 41 1016.2
20260507205518 17 116 1.6 3.2 0.00 0.00 0.00 42 1016.2
20260507204519 16 50 1.6 6.4 0.00 0.00 0.00 40 1016.1
20260507203517 17 3 1.6 4.8 0.00 0.00 0.00 40 1016.1
20260507202516 16 140 3.2 6.4 0.00 0.00 0.00 40 1016.1
20260507201516 17 147 1.6 6.4 0.00 0.00 0.00 40 1016.2
20260507200519 17 124 1.6 4.8 0.00 0.00 0.00 40 1016.4
20260507195517 17 154 3.2 8.0 0.00 0.00 0.00 40 1016.3
20260507194516 17 170 1.6 6.4 0.00 0.00 0.00 40 1016.3
20260507193516 17 143 3.2 8.0 0.00 0.00 0.00 40 1016.4
20260507192519 17 159 1.6 6.4 0.00 0.00 0.00 41 1016.5
20260507191520 17 49 3.2 4.8 0.00 0.00 0.00 42 1016.6
20260507190539 18 13 3.2 6.4 0.00 0.00 0.00 39 1016.7
20260507185518 17 155 1.6 4.8 0.00 0.00 0.00 41 1016.6
20260507184518 18 166 1.6 6.4 0.00 0.00 0.00 37 1016.6
20260507183517 17 156 3.2 9.7 0.00 0.00 0.00 40 1016.6
20260507182517 17 161 3.2 9.7 0.00 0.00 0.00 40 1016.7
20260507181519 18 137 1.6 4.8 0.00 0.00 0.00 39 1016.8
20260507180518 18 139 3.2 8.0 0.00 0.00 0.00 37 1016.8
20260507175538 18 65 3.2 6.4 0.00 0.00 0.00 39 1017.0
20260507174518 18 128 1.6 6.4 0.00 0.00 0.00 37 1017.2
20260507173518 18 357 3.2 11.3 0.00 0.00 0.00 39 1017.2
20260507172538 17 22 3.2 6.4 0.00 0.00 0.00 43 1017.4
20260507171538 17 60 3.2 8.0 0.00 0.00 0.00 40 1017.6
20260507170516 17 16 3.2 8.0 0.00 0.00 0.00 40 1017.6
20260507165515 17 176 3.2 9.7 0.00 0.00 0.00 39 1017.7
20260507164519 17 101 3.2 6.4 0.00 0.00 0.00 42 1017.8
20260507163516 18 21 3.2 8.0 0.00 0.00 0.00 42 1017.9
20260507162519 18 156 3.2 8.0 0.00 0.00 0.00 39 1017.9
20260507161620 18 9 3.2 9.7 0.00 0.00 0.00 37 1018.0
20260507160536 18 145 3.2 8.0 0.00 0.00 0.00 38 1017.9
20260507155517 18 153 3.2 8.0 0.00 0.00 0.00 38 1018.0
20260507154536 18 51 3.2 8.0 0.00 0.00 0.00 37 1017.9
20260507153519 18 353 3.2 6.4 0.00 0.00 0.00 37 1018.0
20260507152539 18 31 1.6 6.4 0.00 0.00 0.00 37 1018.0
20260507151517 17 4 3.2 6.4 0.00 0.00 0.00 40 1017.8
20260507150518 17 161 1.6 6.4 0.00 0.00 0.00 39 1017.8
20260507145524 17 49 3.2 6.4 0.00 0.00 0.00 41 1017.8
20260507144520 17 35 1.6 4.8 0.00 0.00 0.00 41 1017.8
20260507143517 17 29 1.6 6.4 0.00 0.00 0.00 43 1018.0
20260507142517 16 358 1.6 4.8 0.00 0.00 0.00 43 1018.0
20260507141518 16 61 1.6 4.8 0.00 0.00 0.00 43 1018.1
20260507140518 16 44 1.6 6.4 0.00 0.00 0.00 46 1018.1
20260507135518 15 42 1.6 4.8 0.00 0.00 0.00 50 1018.2
20260507134518 15 14 1.6 6.4 0.00 0.00 0.00 47 1018.0
20260507133558 13 49 1.6 6.4 0.00 0.00 0.00 52 1018.0
20260507132519 11 27 3.2 6.4 0.00 0.00 0.00 57 1017.9
20260507131520 10 19 1.6 4.8 0.00 0.00 0.00 68 1018.0
20260507130516 10 28 1.6 3.2 0.00 0.00 0.00 75 1018.0
20260507125516 9 356 1.6 4.8 0.00 0.00 0.00 72 1017.8
20260507124516 6 7 3.2 4.8 0.00 0.00 0.00 82 1017.8
20260507123541 5 7 1.6 3.2 0.00 0.00 0.00 93 1018.0
20260507122520 5 12 1.6 3.2 0.00 0.00 0.00 95 1017.9
20260507121517 4 9 1.6 3.2 0.00 0.00 0.00 95 1018.0
20260507120537 4 14 3.2 3.2 0.00 0.00 0.00 95 1017.9
20260507115537 3 3 1.6 3.2 0.00 0.00 0.00 95 1017.9
20260507114517 3 346 1.6 3.2 0.00 0.00 0.00 95 1017.9
20260507113517 2 322 1.6 3.2 0.00 0.00 0.00 95 1017.8
20260507112518 1 342 1.6 3.2 0.00 0.00 0.00 95 1017.7
20260507111538 1 9 1.6 3.2 0.00 0.00 0.00 95 1017.7
20260507110518 1 20 0.0 3.2 0.00 0.00 0.00 95 1017.5
20260507105519 1 33 1.6 1.6 0.00 0.00 0.00 95 1017.2
20260507104558 1 39 0.0 3.2 0.00 0.00 0.00 95 1017.1
20260507103519 2 2 1.6 3.2 0.00 0.00 0.00 95 1017.1
20260507102518 2 29 0.0 3.2 0.00 0.00 0.00 95 1017.2
20260507101519 1 18 0.0 3.2 0.00 0.00 0.00 95 1017.2
20260507100518 2 36 0.0 3.2 0.00 0.00 0.00 95 1017.1
20260507095519 2 19 0.0 1.6 0.00 0.00 0.00 95 1017.1
20260507094519 3 22 0.0 3.2 0.00 0.00 0.00 95 1017.2
20260507093519 3 331 0.0 3.2 0.00 0.00 0.00 95 1017.2
20260507092539 3 181 0.0 1.6 0.00 0.00 0.00 95 1017.1
20260507091519 3 258 0.0 1.6 0.00 0.00 0.00 95 1017.0
20260507090516 3 343 1.6 3.2 0.00 0.00 0.00 95 1017.0
20260507085516 3 31 0.0 3.2 0.00 0.00 0.00 95 1017.0
20260507084516 3 7 1.6 3.2 0.00 0.00 0.00 95 1016.8
20260507083536 3 196 0.0 3.2 0.00 0.00 0.00 95 1016.7
20260507082539 3 8 1.6 3.2 0.00 0.00 0.00 95 1016.7
20260507081538 3 1 0.0 1.6 0.00 0.00 0.00 95 1016.6
20260507080518 3 357 1.6 3.2 0.00 0.00 0.00 95 1016.6
20260507075517 3 2 0.0 1.6 0.00 0.00 0.00 95 1016.7
20260507074517 4 41 0.0 1.6 0.00 0.00 0.00 95 1016.6
20260507073520 4 8 0.0 1.6 0.00 0.00 0.00 95 1016.6
20260507072517 4 358 1.6 3.2 0.00 0.00 0.00 95 1016.7
20260507071519 4 360 0.0 1.6 0.00 0.00 0.00 95 1016.7
20260507070517 4 335 0.0 3.2 0.00 0.03 0.00 95 1016.7
20260507065518 4 1 1.6 3.2 0.00 0.08 0.00 95 1016.6
20260507064518 4 14 0.0 1.6 0.00 0.13 0.00 95 1016.7
20260507063520 4 351 1.6 3.2 0.00 0.15 0.00 95 1016.7
20260507062518 4 351 0.0 3.2 0.00 0.18 0.00 95 1016.9
20260507061538 4 357 1.6 3.2 0.00 0.23 0.00 94 1016.9
20260507060536 5 4 0.0 1.6 0.00 0.30 0.00 94 1016.8
20260507055519 5 359 1.6 3.2 0.00 0.36 0.00 94 1016.8
20260507054520 5 7 1.6 3.2 0.00 0.46 0.00 94 1016.9
20260507053519 5 20 0.0 1.6 0.00 0.53 0.00 95 1016.9
20260507052519 4 73 0.0 1.6 0.00 0.61 0.00 94 1016.9
20260507051519 4 353 1.6 3.2 0.00 0.64 0.00 94 1016.9
20260507050516 4 26 0.0 1.6 0.00 0.69 0.00 94 1016.8
20260507045516 4 76 0.0 1.6 0.00 0.69 0.00 94 1016.9
20260507044520 5 79 0.0 1.6 0.00 0.71 0.00 94 1016.8
20260507043539 5 183 0.0 1.6 0.00 0.74 0.00 94 1017.0
20260507042516 5 14 0.0 1.6 0.00 0.74 0.00 94 1016.9
20260507041537 5 19 0.0 1.6 0.00 0.74 0.00 94 1016.9
20260507040517 5 18 0.0 1.6 0.00 0.74 0.00 94 1017.0
20260507035520 5 12 0.0 1.6 0.00 0.76 0.76 93 1016.9
20260507034517 5 0.0 0.0 0.00 0.76 0.76 92 1016.8
20260507033541 5 11 0.0 1.6 0.00 0.76 0.76 93 1016.9
20260507032540 6 26 0.0 1.6 0.00 0.76 0.76 92 1016.9
20260507031520 6 1 0.0 1.6 0.00 0.76 0.76 92 1017.0
20260507030540 6 359 0.0 1.6 0.00 0.76 0.76 92 1016.9
20260507025518 6 17 0.0 1.6 0.00 0.76 0.76 91 1017.0
20260507024539 6 33 0.0 1.6 0.00 0.76 0.76 91 1016.9
20260507023518 6 267 0.0 1.6 0.00 0.81 0.76 90 1016.9
20260507022558 7 15 0.0 1.6 0.00 0.84 0.76 90 1016.8
20260507021521 7 360 0.0 1.6 0.00 0.86 0.76 89 1016.7
20260507020518 7 47 0.0 1.6 0.00 0.86 0.76 89 1016.6
20260507015518 7 12 0.0 1.6 0.00 0.91 0.76 85 1016.5
20260507014519 7 3 0.0 0.0 0.00 0.97 0.76 84 1016.5
20260507013519 8 18 0.0 1.6 0.00 0.99 0.76 82 1016.4
20260507012519 8 202 0.0 1.6 0.00 0.99 0.76 80 1016.3
20260507011519 8 26 0.0 1.6 0.00 0.99 0.76 78 1016.1
20260507010516 10 4 0.0 1.6 0.00 0.99 0.76 76 1016.0
20260507005538 10 27 0.0 1.6 0.00 1.02 0.76 73 1016.0
20260507004516 11 23 1.6 3.2 0.00 1.02 0.76 71 1016.0
20260507003516 11 19 0.0 3.2 0.00 1.02 0.76 69 1016.0
20260507002539 12 2 0.0 0.0 0.00 1.02 0.76 68 1016.0
20260507001519 12 345 0.0 1.6 0.00 1.02 0.76 67 1015.9
20260507000517 13 23 0.0 1.6 0.00 1.02 0.76 65 1015.8
20260506235521 13 32 0.0 1.6 0.00 1.02 0.76 63 1015.8
20260506234520 13 31 0.0 3.2 0.00 1.02 0.76 60 1015.6
20260506233520 14 31 1.6 4.8 0.00 1.02 0.76 58 1015.5
20260506232517 15 17 1.6 4.8 0.00 1.02 0.76 61 1015.4
20260506231537 15 52 1.6 4.8 0.00 1.02 0.76 58 1015.4